Weather Roundup
Issued by NWS Chicago, IL

Home | Current Version | Previous Version | Graphics & Text | Print | Product List | Glossary On
Versions: 1 2 3 4 5 6 7 8 9 10 11 12 13 14 15 16 17 18 19 20 21 22 23 24 25 26 27 28 29 30 31 32 33 34 35 36 37 38 39 40 41 42 43 44 45 46 47 48 49 50
000
NZUS59 KLOT 182206
HRRLOT

CHICAGO AREA WEATHER ROUNDUP
NATIONAL WEATHER SERVICE CHICAGO/ROMEOVILLE IL
500 PM CDT FRI APR 18 2014

NOTE: "FAIR" INDICATES FEW OR NO CLOUDS BELOW 12,000 FEET WITH NO
SIGNIFICANT WEATHER AND/OR OBSTRUCTIONS TO VISIBILITY.

* THESE STATIONS ARE NOT UNDER NWS QUALITY CONTROL. THEY ALSO MAY NOT
  REPORT WEATHER SUCH AS PRECIPITATION OR FOG.

ILZ005-006-012>014-019>023-182300-
NORTHEAST ILLINOIS

CITY           SKY/WX    TMP DP  RH WIND       PRES   REMARKS
OHARE          MOSUNNY   49  31  49 NE10      30.33S
MIDWAY         MOSUNNY   47  34  60 E12       30.33S
AURORA         SUNNY     62  32  32 CALM      30.29R
LANSING*       SUNNY     44  33  64 NE16      30.33S
JOLIET*        SUNNY     56  37  47 E10       30.30S
WAUKEGAN       SUNNY     41  31  67 NE12      30.36R
DUPAGE AIRPORT SUNNY     55  36  48 E14       30.30R
WHEELING       SUNNY     44  32  62 NE10      30.37R
KANKAKEE*      SUNNY     60  41  49 NE14      30.29S
MORRIS*        SUNNY     65  24  21 E5        30.27S
NORTHERLY IS     N/A     41  33  73 N12         N/A
$$

WIZ051-052-058>065-066-070>072-182300-
SOUTHEAST WISCONSIN

CITY           SKY/WX    TMP DP  RH WIND       PRES   REMARKS
MILWAUKEE      MOSUNNY   40  30  67 NE17      30.38R
KENOSHA*       SUNNY     43  32  65 E12       30.36R
RACINE*        SUNNY     41  30  65 NE13      30.38R
BURLINGTON     SUNNY     49  35  57 E13       30.34R
WAUKESHA       SUNNY     45  32  61 NE12      30.35R
$$

INZ001>003-010>013-019-020-182300-
NORTHWEST INDIANA

CITY           SKY/WX    TMP DP  RH WIND       PRES   REMARKS
GARY*          MOSUNNY   45  34  65 NE10      30.35F
MICHIGAN CITY* NOT AVBL
RENSSELAER*    NOT AVBL
VALPARAISO     SUNNY     48  34  58 N12       30.32S
$$

LMZ740>746-182300-
SOUTHERN LAKE MICHIGAN

STATION/POSITION TIME  SKY/WX   TEMP WIND        PRES    VSBY
                                AIR  DIR/SP/G
                 (UTC)          (F)  (DEG/KT/KT) (MB)    (MI)
HARRISON CRIB    2200            37   40/ 12/ 13   N/A
BURNHAM HARBOR   2200            41   10/ 11/ 12   N/A
CALUMET HARBOR   2200            39   30/ 12/ 14 1028.2F
BURNS HARBOR     NOT AVBL
MICHIGAN CITY    2200            37   10/ 15/ 17   N/A
$$

ABBREVIATIONS USED IN REMARKS
   TC - TEMPERATURE IN CELSIUS
  WCI - WIND CHILL INDEX
   HX - HEAT INDEX
  VSB - VISIBILITY
$$



USA.gov is the U.S. government's official web portal to all federal, state and local government web resources and services.